• In Hungary
  • List of Countries
  • For 7 days
  • Water Temperature
  • Satellite Maps
  • Weather Map
  • News
  • Weather Widgets
  • user-avatar
    Login

    Hourly Weather Pilyugino

    Today, 26 September, Wednesday

    Time Temperature Precipitation Wind Pressure Humidity
    00:00 +8°C° 0 mm 3 mps 738 mmHg 89%
    01:00 +7°C° 0 mm 3 mps 739 mmHg 90%
    02:00 +7°C° 0 mm 3 mps 739 mmHg 91%
    03:00 +5°C° 0 mm 3 mps 739 mmHg 91%
    04:00 +5°C° 0 mm 3 mps 740 mmHg 91%
    05:00 +5°C° 0 mm 3 mps 740 mmHg 91%
    06:00 +5°C° 0 mm 3 mps 741 mmHg 91%
    07:00 +7°C° 0 mm 3 mps 741 mmHg 86%
    08:00 +8°C° 0 mm 3 mps 742 mmHg 81%
    09:00 +8°C° 0 mm 4 mps 742 mmHg 76%
    10:00 +10°C° 0 mm 4 mps 742 mmHg 72%
    11:00 +11°C° 0 mm 4 mps 743 mmHg 68%
    12:00 +11°C° 0 mm 4 mps 743 mmHg 63%
    13:00 +11°C° 0 mm 4 mps 743 mmHg 64%
    14:00 +11°C° 0 mm 4 mps 743 mmHg 64%
    15:00 +11°C° 0 mm 4 mps 743 mmHg 64%
    16:00 +10°C° 0 mm 3 mps 743 mmHg 68%
    17:00 +9°C° 0 mm 3 mps 744 mmHg 72%
    18:00 +8°C° 0 mm 2 mps 744 mmHg 76%
    19:00 +7°C° 0 mm 2 mps 744 mmHg 77%
    20:00 +8°C° 0 mm 1 mps 744 mmHg 79%
    21:00 +7°C° 0 mm 1 mps 744 mmHg 81%
    22:00 +7°C° 0 mm 1 mps 744 mmHg 82%
    23:00 +5°C° 0 mm 2 mps 744 mmHg 83%

    Tomorrow, 27 September, Thursday

    Time Temperature Precipitation Wind Pressure Humidity
    00:00 +5°C° 0 mm 2 mps 744 mmHg 83%
    01:00 +5°C° 0 mm 2 mps 744 mmHg 84%
    02:00 +3°C° 0 mm 3 mps 744 mmHg 84%
    03:00 +3°C° 0 mm 3 mps 744 mmHg 84%
    04:00 +3°C° 0 mm 3 mps 743 mmHg 84%
    05:00 +3°C° 0 mm 4 mps 743 mmHg 84%
    06:00 +3°C° 0 mm 4 mps 743 mmHg 84%
    07:00 +3°C° 0 mm 5 mps 742 mmHg 76%
    08:00 +5°C° 0 mm 6 mps 742 mmHg 68%
    09:00 +6°C° 0 mm 8 mps 741 mmHg 61%
    10:00 +6°C° 0 mm 8 mps 741 mmHg 57%
    11:00 +7°C° 0 mm 8 mps 740 mmHg 54%
    12:00 +7°C° 0 mm 9 mps 739 mmHg 51%
    13:00 +6°C° 0.2 mm 9 mps 739 mmHg 54%
    14:00 +6°C° 0.2 mm 9 mps 738 mmHg 58%
    15:00 +5°C° 0.2 mm 9 mps 737 mmHg 61%
    16:00 +5°C° 0.5 mm 9 mps 737 mmHg 66%
    17:00 +5°C° 0.5 mm 9 mps 736 mmHg 71%
    18:00 +3°C° 0.5 mm 9 mps 736 mmHg 76%
    19:00 +5°C° 0.2 mm 9 mps 736 mmHg 78%
    20:00 +5°C° 0.2 mm 8 mps 736 mmHg 80%
    21:00 +5°C° 0.2 mm 8 mps 736 mmHg 83%
    22:00 +5°C° 0 mm 7 mps 737 mmHg 85%
    23:00 +5°C° 0 mm 6 mps 737 mmHg 87%

    Day after tomorrow, 28 September, Friday

    Time Temperature Precipitation Wind Pressure Humidity
    00:00 +5°C° 0 mm 6 mps 737 mmHg 90%
    01:00 +5°C° 0 mm 6 mps 737 mmHg 91%
    02:00 +4°C° 0 mm 6 mps 738 mmHg 91%
    03:00 +5°C° 0 mm 5 mps 738 mmHg 92%
    04:00 +5°C° 0 mm 5 mps 738 mmHg 92%
    05:00 +5°C° 0 mm 5 mps 738 mmHg 92%
    06:00 +5°C° 0 mm 5 mps 738 mmHg 92%
    07:00 +6°C° 0 mm 5 mps 738 mmHg 88%
    08:00 +7°C° 0 mm 6 mps 738 mmHg 85%
    09:00 +8°C° 0 mm 6 mps 738 mmHg 81%
    10:00 +9°C° 0 mm 7 mps 738 mmHg 74%
    11:00 +11°C° 0 mm 8 mps 738 mmHg 67%
    12:00 +12°C° 0 mm 8 mps 737 mmHg 60%
    13:00 +13°C° 0 mm 8 mps 737 mmHg 60%
    14:00 +13°C° 0 mm 9 mps 736 mmHg 59%
    15:00 +15°C° 0 mm 9 mps 736 mmHg 59%
    16:00 +13°C° 0 mm 8 mps 736 mmHg 62%
    17:00 +12°C° 0 mm 7 mps 736 mmHg 66%
    18:00 +13°C° 0 mm 6 mps 736 mmHg 69%
    19:00 +11°C° 0 mm 6 mps 735 mmHg 70%
    20:00 +11°C° 0 mm 7 mps 735 mmHg 70%
    21:00 +11°C° 0 mm 7 mps 735 mmHg 70%
    22:00 +11°C° 0 mm 7 mps 735 mmHg 72%
    23:00 +11°C° 0 mm 7 mps 735 mmHg 74%

    29 September, Saturday

    Time Temperature Precipitation Wind Pressure Humidity
    00:00 +11°C° 0 mm 7 mps 735 mmHg 75%
    01:00 +11°C° 0.1 mm 6 mps 736 mmHg 78%
    02:00 +11°C° 0.1 mm 6 mps 736 mmHg 81%
    03:00 +12°C° 0.1 mm 5 mps 737 mmHg 84%
    04:00 +11°C° 0 mm 4 mps 738 mmHg 85%
    05:00 +10°C° 0 mm 4 mps 738 mmHg 85%
    06:00 +9°C° 0 mm 3 mps 739 mmHg 86%
    07:00 +9°C° 0 mm 3 mps 740 mmHg 78%
    08:00 +9°C° 0 mm 3 mps 740 mmHg 70%
    09:00 +9°C° 0 mm 3 mps 741 mmHg 62%
    10:00 +10°C° 0 mm 3 mps 741 mmHg 54%
    11:00 +11°C° 0 mm 3 mps 742 mmHg 46%
    12:00 +13°C° 0 mm 2 mps 742 mmHg 38%
    13:00 +14°C° 0 mm 2 mps 742 mmHg 37%
    14:00 +14°C° 0 mm 2 mps 742 mmHg 36%
    15:00 +14°C° 0 mm 2 mps 742 mmHg 35%
    16:00 +13°C° 0 mm 2 mps 742 mmHg 40%
    17:00 +12°C° 0 mm 2 mps 742 mmHg 45%
    18:00 +9°C° 0 mm 2 mps 743 mmHg 49%
    19:00 +9°C° 0 mm 2 mps 743 mmHg 51%
    20:00 +9°C° 0 mm 2 mps 743 mmHg 53%
    21:00 +8°C° 0 mm 2 mps 743 mmHg 55%
    22:00 +8°C° 0.1 mm 2 mps 743 mmHg 58%
    23:00 +8°C° 0.1 mm 2 mps 744 mmHg 60%

    30 September, Sunday

    Time Temperature Precipitation Wind Pressure Humidity
    00:00 +8°C° 0.1 mm 2 mps 744 mmHg 63%
    01:00 +8°C° 0.2 mm 2 mps 744 mmHg 65%
    02:00 +7°C° 0.2 mm 2 mps 744 mmHg 67%
    03:00 +7°C° 0.2 mm 2 mps 744 mmHg 70%
    04:00 +7°C° 0.1 mm 2 mps 744 mmHg 71%
    05:00 +7°C° 0.1 mm 2 mps 745 mmHg 72%
    06:00 +7°C° 0.1 mm 2 mps 745 mmHg 74%
    07:00 +7°C° 0 mm 2 mps 745 mmHg 71%
    08:00 +8°C° 0 mm 2 mps 746 mmHg 68%
    09:00 +8°C° 0 mm 2 mps 746 mmHg 66%
    10:00 +9°C° 0 mm 2 mps 746 mmHg 59%
    11:00 +10°C° 0 mm 2 mps 746 mmHg 52%
    12:00 +12°C° 0 mm 2 mps 746 mmHg 46%
    13:00 +12°C° 0 mm 2 mps 746 mmHg 44%
    14:00 +13°C° 0 mm 2 mps 746 mmHg 41%
    15:00 +13°C° 0 mm 2 mps 746 mmHg 39%
    16:00 +10°C° 0 mm 2 mps 746 mmHg 43%
    17:00 +9°C° 0 mm 2 mps 746 mmHg 47%
    18:00 +8°C° 0 mm 2 mps 746 mmHg 51%
    19:00 +7°C° 0 mm 2 mps 746 mmHg 53%
    20:00 +6°C° 0 mm 2 mps 747 mmHg 54%
    21:00 +7°C° 0 mm 1 mps 747 mmHg 55%
    22:00 +6°C° 0 mm 1 mps 747 mmHg 56%
    23:00 +6°C° 0 mm 1 mps 747 mmHg 57%

    1 October, Monday

    Time Temperature Precipitation Wind Pressure Humidity
    00:00 +5°C° 0 mm 1 mps 747 mmHg 58%
    01:00 +5°C° 0 mm 1 mps 747 mmHg 59%
    02:00 +5°C° 0 mm 1 mps 747 mmHg 59%
    03:00 +4°C° 0 mm 0 mps 747 mmHg 60%
    04:00 +4°C° 0 mm 1 mps 747 mmHg 61%
    05:00 +4°C° 0 mm 1 mps 747 mmHg 61%
    06:00 +4°C° 0 mm 1 mps 747 mmHg 62%
    07:00 +6°C° 0 mm 1 mps 747 mmHg 58%
    08:00 +7°C° 0 mm 1 mps 747 mmHg 54%
    09:00 +8°C° 0 mm 2 mps 747 mmHg 50%
    10:00 +9°C° 0 mm 2 mps 747 mmHg 47%
    11:00 +10°C° 0 mm 2 mps 747 mmHg 44%
    12:00 +11°C° 0 mm 3 mps 747 mmHg 41%
    13:00 +12°C° 0 mm 3 mps 746 mmHg 41%
    14:00 +12°C° 0 mm 3 mps 746 mmHg 42%
    15:00 +12°C° 0 mm 3 mps 746 mmHg 42%
    16:00 +12°C° 0 mm 2 mps 746 mmHg 47%
    17:00 +10°C° 0 mm 2 mps 746 mmHg 52%
    18:00 +9°C° 0 mm 1 mps 746 mmHg 57%
    19:00 +9°C° 0 mm 1 mps 746 mmHg 58%
    20:00 +9°C° 0 mm 1 mps 746 mmHg 60%
    21:00 +7°C° 0 mm 2 mps 746 mmHg 62%
    22:00 +7°C° 0 mm 2 mps 746 mmHg 63%
    23:00 +6°C° 0 mm 2 mps 746 mmHg 65%
    Show more